Location: Newark
(51.0500°N, 12.4500°E)
Time: 00:50:44
(UTC+00:00)

Tiros 1 - Pass Details

Date: 24 February 2020
Orbit: 630 x 664 km, 48.4° (Epoch: 06 April)

Event Time Altitude Azimuth Distance (km) Brightness Sun altitude
Rises 05:14:41 0° 278° (W) 2,921 - -8.9°
Reaches altitude 10° 05:17:06 10° 271° (W) 2,010 - -8.5°
Exits shadow 05:17:15 11° 270° (W) 1,959 8.9 -8.5°
Maximum altitude 05:21:25 40° 202° (SSW) 929 7.8 -7.8°
Drops below altitude 10° 05:25:44 10° 133° (SE) 2,006 10.6 -7.1°
Sets 05:28:08 0° 126° (SE) 2,914 11.7 -6.8°
